Regional Weather Roundup
Issued by NWS

Home | Current Version | Previous Version | Text Only | Print | Product List | Glossary On
Versions: 1 2 3 4 5 6 7 8 9 10 11 12 13 14 15 16 17 18 19 20 21 22 23 24 25 26 27 28 29 30 31 32 33 34 35 36 37 38 39 40 41 42 43 44 45 46 47 48 49 50
000
ASUS45 KBOU 300910
RWRCO

WEATHER ROUNDUP FOR COLORADO
NATIONAL WEATHER SERVICE DENVER/BOULDER CO
300 AM MDT THU JUL 30 2015

NOTE: "FAIR" INDICATES FEW OR NO CLOUDS BELOW 12000 FEET WITH NO
SIGNIFICANT WEATHER AND/OR OBSTRUCTIONS TO VISIBILITY.

COZ001>005-013-030-031-301000-
...NORTHWEST COLORADO...

CITY           SKY/WX    TMP DP  RH WIND       PRES   REMARKS
CRAIG          CLEAR     43  32  65 SE3       30.39S
HAYDEN         CLEAR     48  27  43 SE5       30.41R
MEEKER         CLEAR     46  29  51 CALM      30.41R
MOUNT WERNER   NOT AVBL
STEAMBOAT SPGS CLEAR     47  31  54 CALM      30.44R
WALDEN         CLEAR     37  28  70 E5        30.52R
$$

COZ006>008-011-301000-
...WEST CENTRAL VALLEYS...

CITY           SKY/WX    TMP DP  RH WIND       PRES   REMARKS
GRAND JUNCTION MOCLDY    65  28  24 E3        30.24R
MONTROSE       PTCLDY    61  33  35 SE9       30.34S
EAGLE          PTCLDY    52  30  43 CALM      30.45R
RIFLE          PTCLDY    57  29  34 E5        30.34R
DELTA          PTCLDY    64  36  36 NE12      30.30S
NUCLA          PTCLDY    63  32  31 SE13      30.38S
$$

COZ017>023-064>068-301000-
...SOUTHWEST COLORADO...

CITY           SKY/WX    TMP DP  RH WIND       PRES   REMARKS
DURANGO        PTCLDY    54  46  74 CALM      30.43S
CORTEZ         CLEAR     59  46  62 E7        30.36S
PAGOSA SPRINGS PTCLDY    56  45  68 CALM      30.51S
TELLURIDE      CLEAR     54  33  45 SE5       30.59S
WOLF CREEK PAS NOT AVBL
$$

COZ009-010-012-014-032>034-037-058>063-301000-
...CENTRAL COLORADO...

CITY           SKY/WX    TMP DP  RH WIND       PRES   REMARKS
ASPEN          PTCLDY    51  36  56 SW6       30.48S
BUENA VISTA    PTCLDY    51  48  92 CALM      30.53F
COPPER MTN     PTCLDY    54  30  40 S8        30.79F
BERTHOUD PASS  FAIR      43  34  70 W13G18    30.83F
COTTONWOOD PAS PTCLDY    55  45  67 W8        30.64F
GUNNISON       NOT AVBL
KREMMLING      PTCLDY    41  28  60 CALM      30.51R
LEADVILLE      MOCLDY    45  44  97 E6        30.65S
MONARCH PASS   PTCLDY    46  37  71 SW10      30.88F
SALIDA         PTCLDY    57  49  75 W7        30.57F
SUNLIGHT       PTCLDY    54  27  35 CALM      30.72S
WILKERSON PASS PTCLDY    46  36  66 W10       30.76S
$$

COZ069>075-301000-
...SAN LUIS VALLEY/SANGRE DE CRISTO MOUNTAINS...

CITY           SKY/WX    TMP DP  RH WIND       PRES   REMARKS
ALAMOSA        MOCLDY    55  49  80 E9        30.48F
LA VETA PASS   PTCLDY    46  43  87 MISG      30.65F
SAGUACHE       PTCLDY    52  46  82 NW6       30.52S
$$

COZ035-036-038>040-301000-
...NORTHERN COLORADO FRONT RANGE...

CITY           SKY/WX    TMP DP  RH WIND       PRES   REMARKS
DENVER INTL AP PTCLDY    67  50  54 SW9       30.29R
DMNS CITY PARK   N/A     66  52  61 N7        30.28S
AURORA         PTCLDY    65  51  60 S10       30.31S
FRONT RANGE AP NOT AVBL
ERIE MUNI ARPT PTCLDY    59  53  79 CALM      30.29R
BOULDER MUN AP PTCLDY    64  50  59 CALM      30.30S
CENTENNIAL     PTCLDY    64  49  57 S7        30.32S
BROOMFIELD     PTCLDY    64  52  63 NW14      30.32S
FORT COLLINS   CLEAR     61  50  67 N8        30.30S
LONGMONT       CLEAR     65  52  62 CALM      30.31R
$$

COZ041-046-047-076>085-087-088-301000-
...PIKES PEAK/PALMER DIVIDE AND SOUTHERN FOOTHILLS...

CITY           SKY/WX    TMP DP  RH WIND       PRES   REMARKS
COLO. SPRINGS  MOCLDY    62  52  69 E5        30.40S
A. F. ACADEMY  PTCLDY    58  49  72 NW5       30.41S
ELLICOTT       PTCLDY   N/A N/A N/A SE7       30.38F
FALCON         PTCLDY    56  52  88 CALM      30.44F
FORT CARSON    PTCLDY    62  52  70 N5        30.36S
LIMON          PTCLDY    55  54  96 SE6       30.36S
MONUMENT HILL  NOT AVBL
TRINIDAD       MOCLDY    61  54  77 W8        30.36F
$$

COZ042>045-048>051-090-091-301000-
...NORTHEAST COLORADO...

CITY           SKY/WX    TMP DP  RH WIND       PRES   REMARKS
GREELEY ARPT   CLEAR     57  50  77 N6        30.28R
AKRON          CLEAR     60  55  83 S13       30.30F
BURLINGTON     PTCLDY    60  57  89 S9        30.31S
WRAY           CLEAR     60  54  80 S5        30.28F
STERLING       CLEAR     61  54  77 S7        30.26S
HOLYOKE        CLEAR     59  54  82 SW3       30.28S
FORT MORGAN    CLEAR     57  51  80 E8        30.28F
$$

COZ086-089-092>099-301000-
...SOUTHEAST COLORADO...

CITY           SKY/WX    TMP DP  RH WIND       PRES   REMARKS
PUEBLO         CLEAR     67  51  56 E10       30.28F
LA JUNTA       PTCLDY    70  63  78 E8        30.27F
LAMAR          MOCLDY    67  63  87 CALM      30.27R
SPRINGFIELD      N/A     65  64  97 CALM      30.30S
$$



USA.gov is the U.S. government's official web portal to all federal, state and local government web resources and services.